Location: Boiro
(42.6475°N, 8.8834°W)
Time: 15:53:36
(UTC+01:00)

Vanguard 3 - Pass Details

Date: 04 December 2021
Orbit: 508 x 3260 km, 33.3° (Epoch: 20 January)

Event Time Altitude Azimuth Distance (km) Brightness Sun altitude
Rises 09:40:27 0° 275° (W) 7,082 11.4 6.9°
Reaches altitude 10° 09:45:50 10° 270° (W) 5,838 11.1 7.7°
Maximum altitude 10:01:14 45° 206° (SSW) 2,767 10.2 9.8°
Drops below altitude 10° 10:10:45 10° 138° (SE) 3,678 14.3 11.1°
Sets 10:13:21 0° 131° (SE) 4,347 13.1 11.4°
